FW7881 Weather Reports


Display with metric or nautical units.
time (UTC)temp
F
wind
direction
speed
MPH
gust
MPH
rain 1hr
in
rain 24hr
in
rain mn
in
humidity
%
barometer
mb
20260504090116 54 169 0.0 4.0 0.00 0.00 0.00 53 997.0
20260504081546 53 0 0.0 1.0 0.00 0.00 0.00 51 998.1
20260504044559 54 0 0.0 0.0 0.00 0.00 0.00 50 1001.9
20260504043047 54 0 0.0 0.0 0.00 0.00 0.00 50 1002.2
20260504041553 56 0 0.0 0.0 0.00 0.00 0.00 50 1002.4
20260504040052 56 0 0.0 0.0 0.00 0.00 0.00 49 1002.8
20260504034554 56 0 0.0 0.0 0.00 0.00 0.00 49 1003.0
20260504033054 56 0 0.0 0.0 0.00 0.00 0.00 49 1003.3
20260504031548 56 0 0.0 0.0 0.00 0.00 0.00 48 1003.5
20260504030048 57 0 0.0 0.0 0.00 0.00 0.00 45 1003.5
20260504024550 58 0 0.0 0.0 0.00 0.00 0.00 43 1003.6
20260504023042 59 0 0.0 0.0 0.00 0.00 0.00 40 1003.7
20260504021549 61 0 0.0 0.0 0.00 0.00 0.00 36 1003.9
20260504020040 61 0 0.0 0.0 0.00 0.00 0.00 35 1003.8
20260504014550 62 0 0.0 0.0 0.00 0.00 0.00 35 1003.9
20260504013052 64 0 0.0 0.0 0.00 0.00 0.00 32 1004.0
20260504011550 66 0 0.0 0.0 0.00 0.00 0.00 30 1004.0
20260504010056 66 0 0.0 6.0 0.00 0.00 0.00 29 1004.0
20260504004550 67 0 0.0 4.0 0.00 0.00 0.00 28 1004.2
20260504003047 68 293 0.0 2.0 0.00 0.00 0.00 27 1004.1
20260504001605 68 282 1.0 6.0 0.00 0.00 0.00 26 1004.3
20260504000048 69 250 0.0 6.0 0.00 0.00 0.00 27 1004.3
20260503234540 70 0 0.0 5.0 0.00 0.00 0.00 27 1004.3
20260503233050 69 0 0.0 6.0 0.00 0.00 0.00 27 1004.3
20260503231547 69 0 0.0 5.0 0.00 0.00 0.00 26 1004.7
20260503230047 70 0 0.0 8.0 0.00 0.00 0.00 26 1004.8
20260503224550 69 0 1.0 8.0 0.00 0.00 0.00 27 1004.8
20260503223049 69 0 1.0 7.0 0.00 0.00 0.00 27 1004.9
20260503221547 69 271 1.0 11.0 0.00 0.00 0.00 26 1005.0
20260503220106 69 273 1.0 8.0 0.00 0.00 0.00 27 1005.0
20260503214550 69 0 1.0 7.0 0.00 0.00 0.00 25 1005.1
20260503213049 69 0 3.0 10.0 0.00 0.00 0.00 26 1005.1
20260503211605 69 0 1.0 14.0 0.00 0.00 0.00 27 1005.3
20260503210055 69 0 0.0 5.0 0.00 0.00 0.00 30 1005.3
20260503204554 69 0 0.0 9.0 0.00 0.00 0.00 29 1005.4
20260503203049 68 244 1.0 10.0 0.00 0.00 0.00 31 1005.4
20260503201559 68 266 0.0 9.0 0.00 0.00 0.00 31 1005.6
20260503200044 68 0 1.0 10.0 0.00 0.00 0.00 31 1005.8
20260503194551 68 271 1.0 10.0 0.00 0.00 0.00 29 1006.1
20260503193054 68 283 3.0 9.0 0.00 0.00 0.00 29 1006.1
20260503191551 68 299 3.0 11.0 0.00 0.00 0.00 28 1006.3
20260503190049 68 349 1.0 14.0 0.00 0.00 0.00 30 1006.2
20260503184545 68 249 3.0 13.0 0.00 0.00 0.00 31 1006.2
20260503183050 67 237 2.0 11.0 0.00 0.00 0.00 34 1006.4
20260503181617 67 0 1.0 11.0 0.00 0.00 0.00 37 1006.4
20260503180054 68 356 1.0 11.0 0.00 0.00 0.00 36 1006.5
20260503174556 67 308 0.0 13.0 0.00 0.00 0.00 36 1006.5
20260503173056 67 0 3.0 11.0 0.00 0.00 0.00 39 1006.6
20260503171549 67 0 1.0 7.0 0.00 0.00 0.00 38 1006.6